AMX1052 MMMX-MMOX

Flight info

Callsign AMX1052
Flight time 0h 44m
Altitude 31000
Route TEVOS2A TEVOS UT113 OAX
Aircraft B738/M-SDE2E3FGHIRWXY/LB1

Departure

Time 2026-05-06 01:42
Airport Mexico City Benito Juárez International Airport (MMMX)

Arrival

Time 2026-05-06 02:26
Airport Xoxocotlán International Airport (MMOX)
Time Latitude Longitude Altitude Speed Heading
2026-05-06 01:26 19.42173 -99.08196 7302 ft 0 kts 212°
2026-05-06 01:31 19.42181 -99.08191 7302 ft 2 kts 212°
2026-05-06 01:31 19.42194 -99.08181 7302 ft 2 kts 216°
2026-05-06 01:31 19.42200 -99.08167 7302 ft 2 kts 322°
2026-05-06 01:32 19.42192 -99.08162 7302 ft 2 kts 302°
2026-05-06 01:32 19.42196 -99.08169 7302 ft 0 kts 301°
2026-05-06 01:35 19.42208 -99.08188 7302 ft 5 kts 310°
2026-05-06 01:35 19.42246 -99.08202 7302 ft 7 kts 357°
2026-05-06 01:35 19.42301 -99.08202 7302 ft 9 kts
2026-05-06 01:36 19.42343 -99.08209 7302 ft 0 kts 350°
2026-05-06 01:36 19.42349 -99.08212 7302 ft 3 kts 331°
2026-05-06 01:36 19.42380 -99.08247 7302 ft 10 kts 308°
2026-05-06 01:36 19.42420 -99.08336 7302 ft 17 kts 293°
2026-05-06 01:37 19.42476 -99.08475 7302 ft 23 kts 292°
2026-05-06 01:37 19.42532 -99.08559 7302 ft 8 kts 325°
2026-05-06 01:37 19.42567 -99.08583 7302 ft 3 kts 328°
2026-05-06 01:37 19.42573 -99.08587 7302 ft 0 kts 328°
2026-05-06 01:39 19.42574 -99.08587 7302 ft 2 kts 328°
2026-05-06 01:40 19.42603 -99.08606 7302 ft 6 kts 328°
2026-05-06 01:40 19.42645 -99.08629 7303 ft 7 kts 347°
2026-05-06 01:40 19.42696 -99.08593 7303 ft 7 kts 59°
2026-05-06 01:40 19.42705 -99.08577 7303 ft 2 kts 59°
2026-05-06 01:41 19.42712 -99.08564 7303 ft 2 kts 59°
2026-05-06 01:41 19.42719 -99.08552 7303 ft 2 kts 59°
2026-05-06 01:41 19.42726 -99.08539 7303 ft 2 kts 59°
2026-05-06 01:41 19.42756 -99.08485 7302 ft 32 kts 60°
2026-05-06 01:42 19.42989 -99.08073 7303 ft 97 kts 59°
2026-05-06 01:42 19.43437 -99.07279 7301 ft 152 kts 59°
2026-05-06 01:42 19.44048 -99.06171 7389 ft 190 kts 63°
2026-05-06 01:42 19.44719 -99.04973 8341 ft 188 kts 60°
2026-05-06 01:43 19.45445 -99.03767 8971 ft 197 kts 59°
2026-05-06 01:43 19.46229 -99.02479 9130 ft 219 kts 59°
2026-05-06 01:43 19.47086 -99.01069 9250 ft 237 kts 58°
2026-05-06 01:43 19.48017 -98.99534 9335 ft 257 kts 58°
2026-05-06 01:44 19.49011 -98.97893 9593 ft 271 kts 58°
2026-05-06 01:44 19.49774 -98.96058 10143 ft 274 kts 84°
2026-05-06 01:44 19.49601 -98.94082 10868 ft 270 kts 111°
2026-05-06 01:44 19.48575 -98.92418 11506 ft 273 kts 136°
2026-05-06 01:45 19.47047 -98.91201 12135 ft 278 kts 146°
2026-05-06 01:45 19.45405 -98.90095 12809 ft 281 kts 147°
2026-05-06 01:45 19.43742 -98.88997 13494 ft 283 kts 147°
2026-05-06 01:45 19.42062 -98.87885 14134 ft 287 kts 147°
2026-05-06 01:46 19.40317 -98.86709 14309 ft 308 kts 146°
2026-05-06 01:46 19.38457 -98.85440 14540 ft 325 kts 146°
2026-05-06 01:46 19.36535 -98.84122 15067 ft 330 kts 146°
2026-05-06 01:46 19.34598 -98.82808 15678 ft 332 kts 149°
2026-05-06 01:47 19.32421 -98.81981 16221 ft 339 kts 171°
2026-05-06 01:47 19.30044 -98.81952 16816 ft 343 kts 181°
2026-05-06 01:47 19.27657 -98.82116 17404 ft 346 kts 182°
2026-05-06 01:47 19.25236 -98.82299 17987 ft 349 kts 182°
2026-05-06 01:48 19.22797 -98.82467 18538 ft 353 kts 181°
2026-05-06 01:48 19.20341 -98.82620 19062 ft 355 kts 181°
2026-05-06 01:48 19.17873 -98.82766 19588 ft 357 kts 181°
2026-05-06 01:48 19.15381 -98.82913 20095 ft 359 kts 181°
2026-05-06 01:49 19.12876 -98.83061 20625 ft 362 kts 181°
2026-05-06 01:49 19.10358 -98.83209 21147 ft 364 kts 181°
2026-05-06 01:49 19.07808 -98.83360 21513 ft 372 kts 181°
2026-05-06 01:49 19.05204 -98.83512 21589 ft 387 kts 181°
2026-05-06 01:50 19.02431 -98.83676 21660 ft 401 kts 181°
2026-05-06 01:50 18.99603 -98.83844 21733 ft 413 kts 181°
2026-05-06 01:50 18.96696 -98.84016 21867 ft 423 kts 181°
2026-05-06 01:50 18.93745 -98.84199 22178 ft 426 kts 183°
2026-05-06 01:51 18.90839 -98.84543 22625 ft 426 kts 186°
2026-05-06 01:51 18.87899 -98.85025 22979 ft 429 kts 188°
2026-05-06 01:51 18.84944 -98.85549 23297 ft 432 kts 188°
2026-05-06 01:51 18.81962 -98.86072 23597 ft 434 kts 188°
2026-05-06 01:52 18.78980 -98.86577 23907 ft 435 kts 188°
2026-05-06 01:52 18.75987 -98.87068 24231 ft 436 kts 188°
2026-05-06 01:52 18.72979 -98.87551 24529 ft 437 kts 187°
2026-05-06 01:52 18.69968 -98.88029 24820 ft 438 kts 188°
2026-05-06 01:53 18.66945 -98.88509 25094 ft 440 kts 188°
2026-05-06 01:53 18.63913 -98.88992 25397 ft 441 kts 188°
2026-05-06 01:53 18.60865 -98.89477 25682 ft 443 kts 188°
2026-05-06 01:53 18.57821 -98.89962 25967 ft 444 kts 188°
2026-05-06 01:54 18.54760 -98.90449 26228 ft 446 kts 188°
2026-05-06 01:54 18.51682 -98.90939 26478 ft 448 kts 188°
2026-05-06 01:54 18.48592 -98.91395 26738 ft 449 kts 184°
2026-05-06 01:54 18.45484 -98.91144 26942 ft 451 kts 166°
2026-05-06 01:55 18.42573 -98.89933 27266 ft 451 kts 151°
2026-05-06 01:55 18.40035 -98.88001 27618 ft 451 kts 136°
2026-05-06 01:55 18.38046 -98.85452 27983 ft 451 kts 126°
2026-05-06 01:55 18.36274 -98.82734 28352 ft 451 kts 125°
2026-05-06 01:56 18.34537 -98.79986 28683 ft 451 kts 125°
2026-05-06 01:56 18.32801 -98.77238 29028 ft 451 kts 125°
2026-05-06 01:56 18.31055 -98.74506 29398 ft 450 kts 126°
2026-05-06 01:56 18.29294 -98.71784 29770 ft 449 kts 126°
2026-05-06 01:57 18.27528 -98.69079 30100 ft 448 kts 126°
2026-05-06 01:57 18.25757 -98.66377 30403 ft 448 kts 126°
2026-05-06 01:57 18.23984 -98.63678 30692 ft 448 kts 126°
2026-05-06 01:57 18.22213 -98.60983 30790 ft 449 kts 126°
2026-05-06 01:58 18.18653 -98.55563 30799 ft 450 kts 126°
2026-05-06 01:58 18.15112 -98.50173 30791 ft 447 kts 126°
2026-05-06 01:59 18.11610 -98.44741 30819 ft 445 kts 125°
2026-05-06 01:59 18.08201 -98.39378 30817 ft 444 kts 125°
2026-05-06 02:00 18.04766 -98.33985 30832 ft 444 kts 125°
2026-05-06 02:00 18.01321 -98.28594 30837 ft 444 kts 125°
2026-05-06 02:01 17.97869 -98.23200 30853 ft 445 kts 126°
2026-05-06 02:01 17.94411 -98.17801 30860 ft 446 kts 126°
2026-05-06 02:02 17.90950 -98.12402 30878 ft 446 kts 126°
2026-05-06 02:02 17.87482 -98.06997 30885 ft 446 kts 126°
2026-05-06 02:03 17.84012 -98.01593 30897 ft 447 kts 126°
2026-05-06 02:03 17.80536 -97.96185 30915 ft 447 kts 126°
2026-05-06 02:04 17.77056 -97.90773 30928 ft 447 kts 125°
2026-05-06 02:04 17.73572 -97.85357 30945 ft 447 kts 125°
2026-05-06 02:05 17.70150 -97.80044 30952 ft 434 kts 125°
2026-05-06 02:05 17.66693 -97.74902 30967 ft 430 kts 127°
2026-05-06 02:06 17.64889 -97.72371 30636 ft 433 kts 128°
2026-05-06 02:06 17.63097 -97.69872 30284 ft 427 kts 128°
2026-05-06 02:06 17.61322 -97.67389 29854 ft 424 kts 127°
2026-05-06 02:06 17.59568 -97.64922 29373 ft 420 kts 127°
2026-05-06 02:07 17.57835 -97.62475 28915 ft 416 kts 127°
2026-05-06 02:07 17.56119 -97.60045 28465 ft 412 kts 127°
2026-05-06 02:07 17.54421 -97.57640 27841 ft 409 kts 127°
2026-05-06 02:07 17.52736 -97.55253 27406 ft 405 kts 127°
2026-05-06 02:08 17.51087 -97.52917 26972 ft 402 kts 127°
2026-05-06 02:08 17.49430 -97.50571 26547 ft 399 kts 127°
2026-05-06 02:08 17.47784 -97.48242 26131 ft 396 kts 127°
2026-05-06 02:08 17.46152 -97.45935 25708 ft 394 kts 127°
2026-05-06 02:09 17.44532 -97.43630 25290 ft 391 kts 126°
2026-05-06 02:09 17.42979 -97.41308 24904 ft 388 kts 124°
2026-05-06 02:09 17.41462 -97.38980 24505 ft 386 kts 124°
2026-05-06 02:09 17.39958 -97.36657 24066 ft 385 kts 124°
2026-05-06 02:10 17.38455 -97.34341 23640 ft 383 kts 124°
2026-05-06 02:10 17.36954 -97.32039 23181 ft 383 kts 124°
2026-05-06 02:10 17.35456 -97.29748 22720 ft 380 kts 124°
2026-05-06 02:10 17.33965 -97.27474 22283 ft 377 kts 124°
2026-05-06 02:11 17.32484 -97.25218 21853 ft 375 kts 124°
2026-05-06 02:11 17.31012 -97.22978 21440 ft 372 kts 124°
2026-05-06 02:11 17.29551 -97.20756 21032 ft 369 kts 124°
2026-05-06 02:11 17.28102 -97.18551 20628 ft 367 kts 124°
2026-05-06 02:12 17.26660 -97.16359 20229 ft 365 kts 123°
2026-05-06 02:12 17.25226 -97.14178 19820 ft 363 kts 123°
2026-05-06 02:12 17.23798 -97.12007 19424 ft 361 kts 123°
2026-05-06 02:12 17.22376 -97.09847 19005 ft 360 kts 123°
2026-05-06 02:13 17.20953 -97.07696 18601 ft 359 kts 123°
2026-05-06 02:13 17.19501 -97.05559 18087 ft 362 kts 124°
2026-05-06 02:13 17.18032 -97.03423 17610 ft 361 kts 124°
2026-05-06 02:13 17.16570 -97.01301 17214 ft 359 kts 124°
2026-05-06 02:14 17.15603 -96.99899 16957 ft 357 kts 124°
2026-05-06 02:14 17.13675 -96.97094 16441 ft 354 kts 123°
2026-05-06 02:14 17.12243 -96.95009 16092 ft 352 kts 123°
2026-05-06 02:14 17.10822 -96.92938 15715 ft 349 kts 123°
2026-05-06 02:15 17.09887 -96.91575 15480 ft 348 kts 123°
2026-05-06 02:15 17.08482 -96.89528 15115 ft 346 kts 123°
2026-05-06 02:15 17.07080 -96.87485 14743 ft 345 kts 123°
2026-05-06 02:15 17.05687 -96.85455 14373 ft 343 kts 123°
2026-05-06 02:16 17.04299 -96.83433 14003 ft 343 kts 123°
2026-05-06 02:16 17.02916 -96.81419 13603 ft 338 kts 123°
2026-05-06 02:16 17.01558 -96.79443 13209 ft 331 kts 123°
2026-05-06 02:16 17.00225 -96.77503 12833 ft 329 kts 123°
2026-05-06 02:17 16.98894 -96.75566 12455 ft 327 kts 123°
2026-05-06 02:17 16.97410 -96.73782 12079 ft 327 kts 140°
2026-05-06 02:17 16.95432 -96.72618 11756 ft 332 kts 160°
2026-05-06 02:17 16.93219 -96.72049 11685 ft 322 kts 165°
2026-05-06 02:18 16.91074 -96.71545 11611 ft 310 kts 165°
2026-05-06 02:18 16.89005 -96.71044 11524 ft 300 kts 164°
2026-05-06 02:18 16.87015 -96.70548 11315 ft 290 kts 164°
2026-05-06 02:18 16.85046 -96.70051 10778 ft 291 kts 164°
2026-05-06 02:19 16.83073 -96.69714 10461 ft 286 kts 183°
2026-05-06 02:19 16.81234 -96.70392 10063 ft 286 kts 213°
2026-05-06 02:19 16.79962 -96.72046 9200 ft 304 kts 249°
2026-05-06 02:19 16.79794 -96.74192 8770 ft 294 kts 283°
2026-05-06 02:20 16.82268 -96.76890 8120 ft 246 kts 345°
2026-05-06 02:20 16.83894 -96.77062 7850 ft 226 kts
2026-05-06 02:20 16.85366 -96.76731 7589 ft 210 kts 18°
2026-05-06 02:21 16.86722 -96.76318 7343 ft 196 kts 19°
2026-05-06 02:21 16.87996 -96.75926 7285 ft 189 kts 20°
2026-05-06 02:21 16.89280 -96.75530 7299 ft 193 kts 19°
2026-05-06 02:21 16.90604 -96.75123 6954 ft 201 kts 18°
2026-05-06 02:22 16.91901 -96.74748 6875 ft 192 kts 10°
2026-05-06 02:22 16.93210 -96.74884 6824 ft 186 kts 345°
2026-05-06 02:22 16.94450 -96.75261 6811 ft 187 kts 344°
2026-05-06 02:22 16.95726 -96.75670 6819 ft 191 kts 343°
2026-05-06 02:23 16.97007 -96.76024 6801 ft 191 kts 351°
2026-05-06 02:23 16.98323 -96.76127 6796 ft 189 kts
2026-05-06 02:23 16.99631 -96.76011 6797 ft 188 kts 13°
2026-05-06 02:23 17.00894 -96.75691 6784 ft 187 kts 17°
2026-05-06 02:24 17.02151 -96.75341 6812 ft 186 kts 17°
2026-05-06 02:24 17.03417 -96.74971 6764 ft 193 kts 18°
2026-05-06 02:24 17.04712 -96.74473 6693 ft 199 kts 32°
2026-05-06 02:24 17.05559 -96.73463 6601 ft 187 kts 78°
2026-05-06 02:25 17.05432 -96.72184 6504 ft 175 kts 120°
2026-05-06 02:25 17.04526 -96.71432 6250 ft 167 kts 181°
2026-05-06 02:25 17.03403 -96.71614 5833 ft 168 kts 193°
2026-05-06 02:25 17.02247 -96.71908 5406 ft 170 kts 194°
2026-05-06 02:26 17.01135 -96.72227 5055 ft 160 kts 195°
2026-05-06 02:26 17.00134 -96.72523 4992 ft 138 kts 194°
2026-05-06 02:26 16.99338 -96.72754 4996 ft 66 kts 195°
2026-05-06 02:26 16.99171 -96.72810 4994 ft 11 kts 145°
2026-05-06 02:27 16.99169 -96.72783 4994 ft 1 kts 59°
2026-05-06 02:27 16.99182 -96.72780 4994 ft 5 kts 13°
2026-05-06 02:27 16.99241 -96.72766 4996 ft 13 kts 13°
2026-05-06 02:27 16.99354 -96.72739 4996 ft 20 kts 13°
2026-05-06 02:28 16.99499 -96.72701 4992 ft 23 kts 17°
2026-05-06 02:28 16.99624 -96.72596 4991 ft 24 kts 46°
2026-05-06 02:28 16.99739 -96.72470 4991 ft 23 kts 46°
2026-05-06 02:28 16.99836 -96.72409 4993 ft 11 kts 13°
2026-05-06 02:29 16.99893 -96.72380 4993 ft 4 kts 62°
2026-05-06 02:29 16.99889 -96.72366 4993 ft 2 kts 124°
2026-05-06 02:29 16.99882 -96.72353 4993 ft 2 kts 119°
2026-05-06 02:29 16.99879 -96.72341 4993 ft 2 kts 105°
2026-05-06 02:30 16.99877 -96.72331 4993 ft 0 kts 105°
2026-05-06 02:30 16.99876 -96.72329 4993 ft 0 kts 105°
2026-05-06 02:31 16.99876 -96.72328 4993 ft 0 kts 107°